Ottumwa, IA

5:16 PM CDT on March 25, 2017 (GMT -0500)
Ottumwa Industrial

Weather History for KOTM - May, 2014

Change the Weather History Date:

Wednesday, May 7, 2014

  Actual Average Record
Temperature  
Mean Temperature 73 °F 58 °F  
Max Temperature 88 °F 69 °F 95 °F (1934)
Min Temperature 58 °F 47 °F 26 °F (1931)
Degree Days  
Heating Degree Days 0 7  
Month to date heating degree days 56 57  
Since 1 July heating degree days 6994 6187  
Cooling Degree Days 8 1  
Month to date cooling degree days 8 7  
Year to date cooling degree days 16 18  
Growing Degree Days 22 (Base 50)    
Moisture  
Dew Point 59 °F    
Average Humidity 60    
Maximum Humidity 81    
Minimum Humidity 39    
Precipitation  
Precipitation 0.04 in 0.14 in 2.32 in (1962)
Month to date precipitation 0.06 1.00  
Year to date precipitation 6.70 8.82  
Sea Level Pressure  
Sea Level Pressure 29.63 in    
Wind  
Wind Speed 16 mph (SSE)    
Max Wind Speed 28 mph    
Max Gust Speed 33 mph    
Visibility 10 miles    
Events Rain , Thunderstorm    
T = Trace of Precipitation, MM = Missing Value Source: NWS Daily Summary

Daily Weather History Graph

Daily Weather History Graph

Search for Another Location

Airport or City:

Trip Planner

Search our weather history database for the weather conditions in past years. The results will help you decide how hot, cold, wet, or windy it might be!

Date:

Astronomy

May. 07, 2014 Rise Set
Actual Time 6:00 AM CDT 8:13 PM CDT
Civil Twilight 5:29 AM CDT 8:43 PM CDT
Nautical Twilight 4:52 AM CDT 9:21 PM CDT
Astronomical Twilight 4:11 AM CDT 10:02 PM CDT
Moon 1:14 PM CDT (5/7) 2:03 AM CDT (5/7)
Length of Visible Light 15h 14m
Length of Day
14h 12m
First Quarter, 55% of the Moon is Illuminated
May 7
First Quarter
May 14
Full
May 21
Last Quarter
May 28
New
Jun 5
First Quarter

Hourly Weather History & Observations

Time (CDT) Temp. Heat Index Dew Point Humidity Pressure Visibility Wind Dir Wind Speed Gust Speed Precip Events Conditions
12:53 AM 64.0 °F - 50.0 °F 60% 29.63 in 10.0 mi East 10.4 mph - N/A   Clear
1:53 AM 61.0 °F - 50.0 °F 67% 29.62 in 10.0 mi East 8.1 mph - N/A   Clear
2:53 AM 60.1 °F - 48.0 °F 64% 29.61 in 10.0 mi East 8.1 mph - N/A   Clear
3:44 AM 59.0 °F - 50.0 °F 72% 29.62 in 10.0 mi ESE 6.9 mph - 0.00 in Rain , Thunderstorm Light Rain
3:53 AM 57.9 °F - 51.1 °F 78% 29.61 in 10.0 mi ESE 6.9 mph - 0.00 in Rain , Thunderstorm Light Rain
4:02 AM 57.9 °F - 52.0 °F 81% 29.62 in 9.0 mi ESE 8.1 mph - 0.02 in Rain , Thunderstorm Light Thunderstorms and Rain
4:46 AM 62.1 °F - 57.0 °F 84% 29.63 in 10.0 mi South 10.4 mph - 0.04 in Thunderstorm Clear
4:53 AM 64.0 °F - 57.9 °F 80% 29.61 in 10.0 mi South 11.5 mph - 0.04 in Thunderstorm Clear
5:11 AM 64.9 °F - 60.1 °F 84% 29.63 in 10.0 mi South 11.5 mph - 0.00 in Thunderstorm Thunderstorm
5:26 AM 68.0 °F - 61.0 °F 78% 29.63 in 10.0 mi South 13.8 mph - 0.00 in Thunderstorm Partly Cloudy
5:39 AM 66.9 °F - 61.0 °F 81% 29.64 in 10.0 mi South 12.7 mph - 0.00 in   Clear
5:53 AM 66.2 °F - 60.8 °F 83% 29.64 in 10.0 mi South 11.5 mph - N/A   Clear
6:53 AM 69.1 °F - 61.0 °F 75% 29.64 in 10.0 mi South 13.8 mph - N/A   Clear
7:53 AM 69.1 °F - 62.1 °F 78% 29.65 in 10.0 mi South 13.8 mph - 0.00 in Thunderstorm Clear
8:15 AM 72.0 °F - 62.1 °F 71% 29.67 in 10.0 mi South 12.7 mph - N/A   Clear
8:53 AM 71.1 °F - 62.1 °F 73% 29.67 in 10.0 mi SE 10.4 mph - N/A   Clear
9:53 AM 75.0 °F - 64.0 °F 69% 29.66 in 10.0 mi SSE 11.5 mph - N/A   Clear
10:44 AM 73.9 °F - 63.0 °F 68% 29.66 in 10.0 mi South 13.8 mph - N/A Thunderstorm Clear
10:53 AM 73.9 °F - 62.1 °F 66% 29.65 in 10.0 mi South 12.7 mph - N/A Thunderstorm Clear
11:03 AM 73.9 °F - 63.0 °F 68% 29.67 in 10.0 mi South 15.0 mph - N/A   Clear
11:53 AM 77.0 °F - 64.0 °F 64% 29.65 in 10.0 mi South 17.3 mph - N/A   Clear
12:53 PM 80.6 °F 81.8 °F 62.6 °F 54% 29.67 in 10.0 mi South 25.3 mph 31.1 mph N/A   Partly Cloudy
1:53 PM 84.0 °F 84.9 °F 63.0 °F 49% 29.63 in 10.0 mi SSE 20.7 mph 28.8 mph N/A   Clear
2:53 PM 84.0 °F 84.5 °F 62.1 °F 47% 29.63 in 10.0 mi South 19.6 mph 27.6 mph N/A   Clear
3:53 PM 87.1 °F 87.0 °F 61.0 °F 41% 29.61 in 10.0 mi South 20.7 mph - N/A   Clear
4:53 PM 88.0 °F 87.6 °F 60.1 °F 39% 29.60 in 10.0 mi South 21.9 mph 27.6 mph N/A   Clear
5:53 PM 87.1 °F 86.5 °F 59.0 °F 39% 29.60 in 10.0 mi South 23.0 mph 29.9 mph N/A   Clear
6:53 PM 84.9 °F 84.8 °F 60.1 °F 43% 29.60 in 10.0 mi South 23.0 mph 29.9 mph N/A   Clear
7:53 PM 82.9 °F 83.2 °F 60.1 °F 46% 29.60 in 10.0 mi South 18.4 mph - N/A   Clear
8:53 PM 81.0 °F 81.3 °F 59.0 °F 47% 29.62 in 10.0 mi South 18.4 mph 26.5 mph N/A   Clear
9:53 PM 80.1 °F 80.7 °F 59.0 °F 48% 29.62 in 10.0 mi South 17.3 mph - N/A   Clear
10:53 PM 77.0 °F - 60.8 °F 57% 29.66 in 10.0 mi South 15.0 mph - N/A   Clear
11:53 PM 77.0 °F - 61.0 °F 58% 29.66 in 10.0 mi South 18.4 mph - N/A   Clear